Location: Brede
(50.9167°N, 0.6000°E)
Time: 22:46:56
(UTC+00:00)

A-11 Canister half - Pass Details

Date: 29 November 2020
Orbit: 1524 x 1684 km, 47.3° (Epoch: 24 January)

Event Time Altitude Azimuth Distance (km) Brightness Sun altitude
Rises 04:46:24 0° 205° (SSW) 4,926 11.5 -25.8°
Reaches altitude 10° 04:50:01 10° 195° (SSW) 3,941 11.0 -25.3°
Maximum altitude 04:58:30 32° 138° (SE) 2,595 10.6 -23.9°
Drops below altitude 10° 05:06:52 10° 81° (E) 3,899 12.1 -22.6°
Sets 05:10:24 0° 72° (ENE) 4,868 12.7 -22.1°
